Wind_Speed
17 18 18 19 19 19 19 20 21 21 21 22 21 21 18 17 13 6 8 1 2 9 4 4 5 5 6 3 5 3 4 6 8 7 5 5 5 3 2 10 3 3 4 20 24
18 19 19 20 20 20 20 20 21 22 22 21 20 20 17 17 9 11 4 7 7 10 6 8 3 3 5 1 2 5 4 9 6 3 3 6 3 7 5 9 5 8 12 24 26
18 20 20 20 21 21 22 21 21 22 21 20 19 18 15 13 7 4 2 3 13 15 8 9 8 6 6 1 3 3 6 10 6 2 4 7 5 2 4 6 6 11 19 21 24
20 21 21 21 22 22 22 21 22 22 21 20 18 15 13 4 5 5 3 4 8 14 11 7 6 6 6 5 3 5 7 7 3 4 5 7 7 4 1 5 3 13 20 20 20
20 22 22 21 22 23 22 22 22 22 21 20 16 10 5 6 4 3 3 4 5 13 15 10 7 4 7 6 7 5 9 5 4 5 6 7 6 5 7 8 13 16 18 18 17
22 23 23 22 22 23 23 24 23 23 21 17 10 3 5 8 1 1 4 3 7 13 13 10 5 3 4 4 6 8 5 3 2 5 6 5 6 6 7 12 14 17 17 15 17
22 24 23 22 22 24 25 24 24 21 15 10 3 1 7 8 1 3 5 4 5 10 10 8 4 8 0 4 6 4 4 5 2 3 4 4 7 5 12 13 16 15 16 15 16
22 24 24 23 22 24 25 26 20 11 4 2 4 3 5 3 3 7 7 8 9 7 6 4 4 5 6 1 4 7 6 6 5 3 4 6 6 11 14 15 16 16 15 15 17
23 25 25 23 24 25 24 18 6 2 4 5 2 5 2 2 6 3 8 9 10 8 6 3 6 7 6 11 9 6 5 3 5 2 2 5 6 8 14 15 15 16 17 16 16
23 25 24 24 23 26 15 5 0 2 2 1 3 6 6 4 0 2 7 8 10 10 9 10 8 11 12 11 11 4 7 3 4 4 6 9 9 11 12 15 16 16 17 17 17
23 23 24 24 24 16 14 3 5 6 8 7 3 4 3 5 2 6 8 12 10 13 15 12 13 17 17 18 9 5 8 6 5 5 6 5 8 7 13 14 15 16 17 18 19
22 22 24 23 22 8 4 3 5 5 6 6 9 11 11 6 4 8 10 12 10 14 6 8 18 19 15 10 11 14 12 11 3 3 6 7 11 5 7 13 16 18 18 18 17
21 23 24 23 10 5 3 5 4 5 6 4 3 3 2 10 5 11 13 10 11 12 13 17 8 11 10 15 17 16 15 12 5 9 11 7 16 6 4 7 11 15 18 18 18
22 22 23 22 1 7 2 1 11 4 5 6 5 5 7 5 7 2 8 9 7 12 11 11 9 8 16 19 16 19 14 9 8 7 9 0 11 7 5 7 12 15 18 18 19
22 24 22 15 9 4 1 7 5 4 5 4 6 5 5 6 11 7 6 7 8 9 9 11 13 15 15 18 14 16 6 10 9 11 12 15 8 10 4 7 5 12 16 20 18
24 24 22 4 6 6 6 10 4 6 3 5 4 7 11 7 6 9 10 4 3 5 8 8 2 9 17 9 12 15 9 12 11 12 13 17 8 11 5 2 7 4 9 17 19
27 21 13 5 1 4 9 4 6 4 4 6 5 7 11 10 8 11 13 14 9 9 10 11 13 8 6 15 10 10 16 12 13 13 12 6 7 12 11 10 5 6 2 12 18
25 11 5 6 4 5 6 5 4 3 3 3 2 6 9 12 7 6 12 12 7 7 2 7 10 15 14 16 14 13 17 13 14 13 14 6 9 12 3 9 5 6 4 7 15
13 1 1 2 5 5 6 7 2 2 1 1 6 10 9 9 4 10 10 10 10 14 5 5 4 3 6 13 14 13 13 17 19 8 9 6 5 8 14 8 8 8 4 8 11
5 2 5 3 5 7 6 1 1 2 5 2 3 5 9 9 10 9 8 3 6 10 13 2 4 2 10 9 14 16 11 12 11 15 15 13 9 10 8 11 10 9 4 7 9
3 3 3 2 2 5 6 2 1 1 3 3 1 5 3 10 6 7 8 7 3 4 13 9 8 7 8 13 15 11 13 11 11 13 13 12 9 5 5 10 10 11 3 3 8
4 3 2 2 5 2 5 2 1 3 3 3 3 2 1 4 8 5 9 4 2 6 7 13 6 7 9 8 5 10 19 18 10 15 12 13 12 11 8 13 9 10 2 2 2
2 2 3 4 4 6 4 4 3 5 3 2 3 2 0 3 5 5 5 4 2 5 6 9 8 7 10 10 9 10 13 14 15 13 11 9 10 9 7 13 11 8 3 4 4
3 3 4 3 2 4 4 4 5 4 5 3 3 4 4 6 4 6 8 5 2 2 5 6 8 9 9 7 6 18 15 14 16 12 13 14 12 11 13 10 9 6 5 7 7
2 2 5 5 6 5 4 1 5 6 4 3 5 3 4 5 7 7 5 7 6 6 2 6 10 4 8 8 8 12 14 18 16 16 15 12 4 9 12 9 9 6 7 6 7
4 3 3 1 2 7 5 7 6 4 4 6 2 2 2 2 5 1 3 4 1 6 6 5 7 5 12 5 7 12 16 15 15 14 9 12 11 12 9 11 8 7 1 9 10
1 1 4 5 5 7 8 6 6 2 5 1 3 4 6 6 9 10 10 9 6 7 4 7 10 9 14 4 8 10 14 16 16 13 12 12 9 11 13 13 9 6 2 9 14
Wind_Direction
0 358 353 352 349 347 345 343 340 339 339 337 339 340 337 333 323 286 251 268 247 205 198 179 210 229 211 251 251 278 272 17 28 15 62 142 140 105 86 135 107 74 131 132 150
352 350 348 347 345 343 340 338 337 336 335 334 334 336 334 334 309 257 264 235 211 182 237 260 288 208 229 226 222 281 341 2 351 44 63 151 160 135 150 140 138 109 109 134 151
347 347 342 341 341 339 337 333 332 331 331 329 329 330 331 333 270 162 182 223 215 208 243 276 290 270 270 250 25 13 357 346 19 70 137 131 135 127 129 191 163 152 144 151 157
346 343 338 335 336 336 332 328 326 325 324 322 321 324 326 293 216 127 60 352 201 197 221 239 258 253 289 1 33 305 10 3 37 141 131 144 125 142 133 13 113 145 156 157 166
343 341 336 331 331 331 328 324 322 320 319 317 314 319 325 233 248 193 358 351 148 182 201 216 227 258 280 335 326 328 357 37 99 127 121 137 137 102 106 89 118 141 157 166 170
339 338 336 332 332 330 326 321 317 315 313 309 300 308 272 247 83 226 312 295 194 193 206 216 229 273 275 314 328 340 346 74 98 117 133 146 158 185 131 125 134 152 164 170 173
336 337 337 334 332 327 322 320 314 312 307 299 211 175 255 261 166 272 287 235 219 215 202 207 214 233 115 254 344 318 243 153 111 164 125 172 178 194 145 152 149 162 172 173 175
335 336 334 332 330 325 323 319 316 311 312 169 151 223 265 202 273 266 229 237 227 214 248 195 223 262 258 293 239 278 246 243 79 209 132 236 95 139 163 168 164 166 176 182 181
334 334 332 330 330 328 325 320 334 53 109 130 177 250 243 263 198 157 203 202 181 191 191 189 216 250 188 242 232 218 279 345 122 190 294 247 354 136 176 184 174 177 179 186 190
332 332 332 330 333 330 331 330 243 107 125 202 251 244 217 145 261 263 190 194 177 169 171 206 214 222 224 232 244 176 245 171 24 53 242 281 278 158 189 197 189 185 186 191 198
333 334 332 331 333 329 338 273 215 185 206 287 44 326 120 352 177 185 179 184 185 198 208 206 223 221 228 227 285 256 268 275 101 39 304 290 305 295 180 202 201 200 192 196 201
338 338 332 335 334 347 348 335 51 359 297 224 257 264 267 284 237 181 179 195 202 210 207 197 230 236 237 253 226 238 249 246 272 223 302 295 295 354 198 205 211 206 202 203 200
342 338 333 340 339 14 6 93 4 314 257 154 202 239 177 194 211 162 201 196 211 214 215 237 228 229 225 222 236 239 247 254 296 313 269 274 265 186 162 220 219 218 215 205 204
341 337 334 342 55 340 202 188 325 223 254 124 157 117 163 213 191 127 211 201 202 226 215 236 225 224 225 236 225 242 217 258 253 266 276 243 295 223 155 213 210 217 217 214 204
339 333 330 338 306 263 67 321 322 220 199 110 106 117 152 224 123 157 169 201 188 182 213 213 219 219 229 227 221 246 228 253 260 265 262 263 251 278 190 273 211 213 214 217 205
336 328 324 332 273 257 307 316 221 229 120 120 125 157 174 182 146 140 176 218 60 169 222 258 219 245 239 226 243 245 217 236 249 258 261 256 243 275 248 324 322 144 212 208 208
329 322 299 267 22 300 306 235 230 272 162 130 114 164 192 161 147 172 182 186 192 196 200 197 216 205 234 227 205 218 226 237 234 233 245 247 244 257 313 295 314 341 218 206 198
329 322 295 227 253 309 250 228 246 87 73 118 189 183 193 180 184 149 179 197 212 254 183 217 188 204 205 234 206 217 234 232 231 239 246 144 252 259 328 316 279 292 235 194 201
346 29 185 275 254 218 237 219 35 113 38 354 161 184 152 182 241 202 207 205 201 214 247 191 214 150 229 212 236 196 234 247 266 243 281 268 216 255 257 295 271 276 241 196 194
332 222 28 310 170 212 237 311 166 349 336 259 213 256 174 154 183 209 175 150 214 219 243 130 256 177 161 213 228 258 268 209 230 254 240 251 239 276 283 306 308 342 316 207 177
240 204 99 58 246 222 227 134 174 193 291 297 133 175 144 164 171 181 164 132 201 175 228 235 250 135 185 198 199 199 233 239 273 224 257 252 250 260 316 298 327 322 345 335 185
289 196 142 312 209 246 211 183 44 229 201 254 265 284 243 187 181 169 160 56 61 181 196 214 263 238 225 140 267 273 213 231 224 228 240 277 287 303 286 289 292 303 34 18 273
347 63 182 282 221 196 155 201 257 217 209 222 245 276 115 203 192 196 145 104 112 195 188 174 237 224 213 191 203 236 235 254 252 253 277 271 273 290 284 287 275 277 289 191 181
273 175 163 233 299 263 190 181 198 190 251 248 277 258 242 211 209 168 172 151 161 283 1 235 267 270 300 350 330 204 226 228 251 239 245 248 269 298 299 277 289 262 243 243 165
283 68 354 188 195 212 239 205 206 185 219 226 186 278 261 230 193 197 209 181 181 144 187 249 267 261 281 295 271 266 251 221 245 252 274 291 293 301 305 306 334 343 312 204 157
316 308 195 243 204 222 165 199 214 162 233 165 218 301 208 215 348 94 313 235 268 174 220 231 281 274 280 237 265 249 240 236 225 240 248 272 290 280 313 302 322 349 72 170 158
103 268 280 132 197 218 205 210 197 257 168 327 336 281 197 37 328 299 277 285 297 288 261 270 280 270 275 276 289 252 237 233 238 219 239 253 273 316 303 309 341 341 237 172 154
Height
811 809 806 803 801 798 795 792 789 785 781 778 775 773 770 767 764 762 758 757 757 758 758 759 759 756 756 749 747 742 755 763 761 761 762 755 759 755 755 763 763 765 763 769 786
811 808 805 802 799 797 793 790 787 783 780 777 774 771 769 766 763 758 757 756 756 757 757 752 749 750 745 745 743 747 758 762 748 746 753 754 755 759 764 768 772 771 770 780 787
809 806 803 801 798 795 792 788 785 781 778 775 773 770 767 765 760 748 754 754 754 755 757 753 749 746 744 740 744 747 761 747 747 745 743 754 757 754 763 770 763 771 775 781 786
808 804 801 798 796 793 789 786 783 779 776 773 771 768 766 765 768 751 753 752 750 754 756 751 745 746 747 750 743 757 745 747 749 749 749 755 752 759 758 762 754 763 772 778 783
807 803 799 796 793 790 786 783 779 776 773 770 769 767 766 759 752 752 752 753 752 754 752 748 747 746 752 746 743 752 749 746 747 749 748 751 758 758 761 756 759 766 774 778 781
804 801 797 793 790 787 783 779 776 772 770 767 766 766 766 763 752 752 752 752 752 752 749 746 743 742 746 747 751 748 747 750 747 749 751 756 759 755 760 759 765 769 774 777 779
802 799 795 791 787 783 779 775 771 768 766 764 764 765 763 753 752 752 752 751 751 749 745 745 744 745 742 748 742 745 754 750 750 748 752 750 768 763 757 760 767 770 773 774 778
801 797 793 789 785 780 775 771 767 765 763 763 764 766 755 751 751 750 750 749 750 750 748 747 747 742 744 741 744 754 750 762 752 749 749 754 765 755 755 760 765 767 771 774 776
798 794 790 786 782 778 773 768 765 764 763 764 766 764 750 749 748 748 748 745 747 748 749 749 746 744 747 757 760 756 769 768 761 747 749 754 758 754 753 755 762 765 768 771 773
796 792 787 783 779 774 770 767 766 765 765 765 765 765 747 745 746 747 747 746 744 744 748 747 745 754 751 759 782 770 768 763 767 754 752 754 752 746 752 752 755 759 763 766 769
794 790 785 781 777 772 768 768 766 763 762 747 747 748 746 747 746 745 745 744 741 743 755 747 759 765 752 746 748 758 763 766 757 752 757 752 749 740 743 751 752 753 757 759 762
791 788 783 778 774 771 768 762 770 773 760 748 749 750 749 750 748 742 745 745 747 756 751 760 764 742 738 741 756 759 764 761 752 749 754 750 750 736 734 745 745 747 749 754 756
790 786 781 776 773 772 771 770 772 771 761 746 745 744 743 748 742 740 740 739 749 755 756 757 746 736 751 757 763 758 762 756 767 754 744 753 752 743 738 738 740 740 740 743 750
788 784 780 775 775 773 769 771 770 769 752 750 743 742 744 741 745 739 737 740 750 756 752 754 740 756 757 758 753 764 742 755 763 769 776 750 779 743 736 741 741 737 737 736 742
786 782 778 776 776 771 772 771 769 769 761 742 743 741 739 741 736 744 741 740 752 755 758 756 755 759 759 752 744 757 741 753 755 762 759 756 770 743 730 735 724 730 729 730 732
783 779 775 776 775 771 770 770 769 762 771 747 739 741 745 737 738 739 742 738 738 752 751 745 743 745 746 741 743 742 754 755 752 758 779 754 759 751 734 731 723 718 720 723 727
778 774 772 773 768 769 769 765 759 756 742 752 745 737 737 742 742 741 748 751 754 770 766 754 753 742 743 753 744 751 760 782 789 782 782 737 760 747 722 714 714 717 715 717 720
772 769 768 768 768 768 767 758 770 753 745 739 741 741 745 736 739 741 746 752 744 746 753 761 769 747 738 745 750 754 750 769 799 783 761 737 770 744 712 709 707 709 711 713 716
769 770 770 768 767 767 760 760 752 748 745 746 740 743 745 741 740 743 744 742 736 740 758 758 760 737 736 735 739 746 761 732 750 740 761 743 735 722 711 710 705 704 706 712 714
771 768 767 766 766 766 755 766 751 748 746 743 744 739 745 741 744 741 744 733 738 732 728 740 763 738 736 735 734 740 729 762 754 784 787 757 754 749 728 721 707 702 703 701 708
770 757 769 768 768 757 754 749 752 745 747 748 746 742 735 740 733 738 741 737 731 733 729 731 744 748 740 748 744 750 750 744 734 741 766 769 751 707 718 712 710 705 701 701 702
766 755 768 768 760 753 752 752 763 746 742 744 744 740 736 737 736 736 738 731 729 730 744 732 732 749 741 724 722 724 734 732 756 764 749 749 747 697 701 701 699 702 700 702 703
763 761 767 766 756 754 753 750 749 747 744 744 743 740 737 738 746 733 734 728 730 732 738 734 740 752 749 736 730 741 730 725 720 722 747 757 746 694 695 698 695 702 699 701 706
768 760 761 759 756 748 754 752 751 746 746 743 742 737 740 740 734 738 735 730 728 728 743 732 726 736 746 738 724 738 731 724 726 742 738 733 731 713 703 700 694 694 698 699 706
769 762 764 758 756 753 754 754 753 751 745 742 745 743 744 744 739 742 733 729 728 742 732 727 738 734 728 727 729 728 724 722 733 725 738 723 725 714 701 697 695 701 701 704 708
771 767 765 760 761 759 766 754 753 751 748 747 744 744 740 744 746 744 740 734 730 728 728 723 741 734 738 725 729 735 722 720 721 722 723 721 724 697 691 689 694 699 704 704 708
782 781 774 770 756 756 750 750 752 752 747 745 748 743 743 746 746 741 735 731 733 736 730 733 732 738 747 727 730 742 722 716 714 711 715 729 709 693 697 694 696 702 700 700 704